Regional Weather Roundup
Issued by NWS

Home | Current Version | Previous Version | Text Only | Print | Product List | Glossary On
Versions: 1 2 3 4 5 6 7 8 9 10 11 12 13 14 15 16 17 18 19 20 21 22 23 24 25 26 27 28 29 30 31 32 33 34 35 36 37 38 39 40 41 42 43 44 45 46 47 48 49 50
000
ASUS45 KTFX 230604
RWRMT
MONTANA HOURLY WEATHER ROUNDUP
NATIONAL WEATHER SERVICE GREAT FALLS MT
1204 AM MDT THU OCT 23 2014

NOTE: "FAIR" INDICATES FEW OR NO CLOUDS BELOW 12000 FEET WITH NO
SIGNIFICANT WEATHER AND/OR OBSTRUCTIONS TO VISIBILITY.

* THESE STATIONS ARE NOT UNDER NWS QUALITY CONTROL. THEY DO NOT
   REPORT WEATHER SUCH AS PRECIPITATION OR FOG.

MTZ001>007-043-230700-
WEST OF THE DIVIDE
CITY           SKY/WX    TMP DP  RH WIND       PRES   REMARKS
KALISPELL      CLOUDY    55  37  51 S10       29.82S
MISSOULA       CLOUDY    52  37  57 SE6       29.90S
BUTTE          CLOUDY    39  30  70 NE3       30.02F
MULLAN PASS    LGT RAIN  39  36  89 S8        29.88S WCI  33
* ESSEX        N/A       40  37  89 W1         N/A
* LINCOLN      N/A       34  31  89 N2         N/A
* POLSON       N/A       47  35  63 SE2        N/A
* RONAN APT    PTCLDY    55  37  51 SE7        N/A
* SEELEY LAKE  N/A       34  32  92 N3         N/A
* THOMP F APT  CLOUDY    36  22  57 NE7G12     N/A   WCI  30
$$

MTZ008-052>055-230700-
SOUTHWEST MONTANA
CITY           SKY/WX    TMP DP  RH WIND       PRES   REMARKS
BOZEMAN        MOCLDY    36  28  73 SE9       30.02F WCI  29
DILLON         CLOUDY    41  28  60 NW5       30.03F
W YELLOWSTONE  PTCLDY    27  25  92 E3        30.18S
* THREE FORKS  MOCLDY    52  37  57 SW15G24    N/A
* BOULDER HILL N/A       40  25  55 SW12       N/A   WCI  33
* MONIDA PASS  N/A       36  23  59 SE14G20    N/A   WCI  27
* RAYNOLDS PAS N/A       34  17  50 SE14       N/A   WCI  24
* WHITEHALL    N/A       46  29  52 SE4G17     N/A
* WISE RIVER   N/A       33  28  82 SE4        N/A
$$

MTZ009>010-012-014-046-048-049-054-230700-
EAST SLOPES AND CENTRAL MONTANA
CITY           SKY/WX    TMP DP  RH WIND       PRES   REMARKS
CUT BANK       MOCLDY    45  36  71 VRB3      29.76F
GREAT FALLS    CLEAR     52  32  47 S18G24    29.84F
HELENA         PTCLDY    55  30  39 S17G25    29.90F
MALMSTROM AFB  CLEAR     52  32  47 S23G28    29.85F
* CONRAD       PTCLDY    48  39  71 SE9        N/A
* EAST GLACIER N/A       50  33  52 W18G34     N/A
* MONARCH      N/A       47  20  34 S20G30     N/A
* PENDROY      N/A       44  34  68 S4         N/A
* SAINT MARY   N/A       52  33  48 S9G23      N/A
* SWEET GRASS  N/A       47  34  61 S16        N/A
$$

MTZ011-013-016-021-035-040-045-047-050-051-230700-
NORTH CENTRAL MONTANA
CITY           SKY/WX    TMP DP  RH WIND       PRES   REMARKS
HAVRE          CLEAR     52  36  55 SW16      29.79F
LEWISTOWN      CLEAR     48  30  50 S9        29.91F
* CHESTER      N/A       43  35  73 S4         N/A
* DENTON       N/A       43  32  65 S9         N/A
* JUDITH GAP   N/A       45  27  49 SE4G9      N/A
* LOMA         N/A       52  34  50 SW6        N/A
$$

MTZ017>020-022>027-061-062-230700-
NORTHEAST MONTANA
CITY           SKY/WX    TMP DP  RH WIND       PRES   REMARKS
GLASGOW        CLEAR     39  30  70 S3        29.84F
GLENDIVE       PTCLDY    37  28  70 S7        29.91F WCI  32
JORDAN         CLEAR     28  25  89 W3        29.88F
SIDNEY         CLEAR     37  30  76 CALM      29.90S
WOLF POINT     CLEAR     34  28  79 CALM      29.87F
* BEAVER HILL  N/A       46  28  50 S11        N/A
* CIRCLE       N/A       41  32  70 N/A        N/A
* LINDSAY DVD  N/A       44  28  53 SW10       N/A
* NAVAJO       N/A       39  30  70 W9         N/A   WCI  33
* SACO         N/A       38  33  82 SE7        N/A   WCI  33
$$

MTZ028>042-056>058-230700-
SOUTHCENTRAL AND SOUTHEAST MONTANA
CITY           SKY/WX    TMP DP  RH WIND       PRES   REMARKS
BAKER          CLEAR     37  28  70 CALM      29.95F
BILLINGS       CLEAR     50  23  35 SW13      29.96R
LIVINGSTON     PTCLDY    50  21  32 W17G26    29.99S
MILES CITY     CLEAR     39  28  65 S6        29.92F WCI  35
* LAUREL APT   CLEAR     45  21  38 SW5        N/A
* ROUNDUP APT  CLEAR     48  27  44 S8         N/A
* ALZADA       N/A       38  29  70 E5         N/A   WCI  34
* LAME DEER    N/A       50  22  33 SW4        N/A
* REED POINT   N/A       35  27  73 W6         N/A   WCI  30
* ROSCOE HILL  N/A       53  13  20 S20G29     N/A
$$

REGIONAL REPORTS...DAKOTAS
CITY           SKY/WX    TMP DP  RH WIND       PRES   REMARKS
WILLISTON      CLEAR     39  30  70 CALM      29.86F
DICKINSON      CLEAR     43  30  60 W5        29.91F
BEACH          N/A       36  28  73 SW7       29.92F WCI  30
CROSBY         N/A       45  36  71 SW9       29.83F
TIOGA          CLEAR     39  36  89 W8        29.88F WCI  33
BISMARCK       CLEAR     43  34  71 SW5       29.92S
GRAND FORKS    CLEAR     46  45  96 SW7       29.84S
FARGO          CLEAR     52  48  86 SW10      29.89S
BUFFALO SD     CLEAR     41  27  58 SW3       29.91F
RAPID CITY     CLEAR     39  32  76 W3        30.03S
$$

REGIONAL REPORTS...WYOMING/IDAHO/WASHINGTON
CITY           SKY/WX    TMP DP  RH WIND       PRES   REMARKS
GILLETTE       CLEAR     41  21  45 SW5       30.02F
SHERIDAN       CLEAR     34  23  64 S3        29.99F
CODY           PTCLDY    54  21  27 W16G33    30.04F
YELLOWSTONE LA PTCLDY    27  23  85 CALM      30.23F
SALMON         CLOUDY   N/A N/A N/A N/A        N/A
MULLAN PASS    LGT RAIN  39  36  89 S8        29.88S WCI  33
SAND POINT     LGT RAIN  46  46 100 CALM      29.80F
SPOKANE        LGT RAIN  52  46  80 S14       29.76S

$$




USA.gov is the U.S. government's official web portal to all federal, state and local government web resources and services.